DW7875 Weather Reports


Display with metric or nautical units.
time (UTC)temp
F
wind
direction
speed
MPH
gust
MPH
rain 1hr
in
rain 24hr
in
rain mn
in
humidity
%
barometer
mb
20260502123002 51 286 2.0 5.0 0.00 0.00 0.00 55 1013.5
20260502121501 51 256 1.0 6.0 0.00 0.00 0.00 56 1013.6
20260502114602 50 359 1.0 6.0 0.00 0.00 0.00 56 1013.7
20260502113058 50 336 0.0 4.0 0.00 0.00 0.00 57 1013.8
20260502111555 50 18 2.0 8.0 0.00 0.00 0.00 56 1013.6
20260502110053 50 127 0.0 3.0 0.00 0.00 0.00 58 1013.3
20260502104550 50 6 0.0 4.0 0.00 0.00 0.00 58 1013.2
20260502103048 50 259 0.0 4.0 0.00 0.00 0.00 58 1013.1
20260502101546 50 4 1.0 7.0 0.00 0.00 0.00 59 1012.9
20260502071533 50 221 0.0 1.0 0.00 0.00 0.00 70 1011.5
20260502070045 50 221 0.0 1.0 0.00 0.00 0.00 70 1011.6
20260502064538 51 221 0.0 1.0 0.00 0.00 0.00 69 1011.7
20260502063028 52 221 0.0 1.0 0.00 0.00 0.00 69 1011.9
20260502061525 52 221 0.0 1.0 0.00 0.00 0.00 68 1012.1
20260502060022 52 221 0.0 0.0 0.00 0.00 0.00 67 1012.0
20260502054521 53 221 0.0 0.0 0.00 0.00 0.00 66 1012.0
20260502053019 53 221 0.0 0.0 0.00 0.00 0.00 65 1012.3
20260502051519 54 221 0.0 0.0 0.00 0.00 0.00 64 1012.5
20260502050019 54 221 0.0 2.0 0.00 0.00 0.00 64 1012.6
20260502044512 55 221 0.0 1.0 0.00 0.00 0.00 61 1012.2
20260502043009 55 221 0.0 2.0 0.00 0.00 0.00 60 1012.0
20260502041508 56 219 0.0 5.0 0.00 0.00 0.00 59 1011.9
20260502040007 56 212 1.0 4.0 0.00 0.00 0.00 60 1011.8
20260502034505 56 214 0.0 3.0 0.00 0.00 0.00 59 1011.7
20260502033012 56 158 1.0 4.0 0.00 0.00 0.00 60 1011.9
20260502031503 56 160 1.0 4.0 0.00 0.00 0.00 60 1011.7
20260502030003 56 212 1.0 5.0 0.00 0.00 0.00 59 1011.4
20260502024510 56 191 2.0 6.0 0.00 0.00 0.00 60 1011.6
20260502023003 56 124 1.0 4.0 0.00 0.00 0.00 62 1011.5
20260502021502 57 230 1.0 4.0 0.00 0.00 0.00 62 1011.8
20260502020001 57 150 1.0 3.0 0.00 0.00 0.00 62 1011.7
20260502014604 58 144 2.0 6.0 0.00 0.00 0.00 61 1011.4
20260502014510 58 144 1.0 6.0 0.00 0.00 0.00 63 1011.4
20260502013103 58 136 4.0 8.0 0.00 0.00 0.00 62 1011.2
20260502011558 58 139 4.0 8.0 0.00 0.00 0.00 59 1010.9
20260502004604 58 134 3.0 7.0 0.00 0.00 0.00 60 1011.0
20260502003056 58 123 4.0 7.0 0.00 0.00 0.00 59 1011.0
20260502001556 58 119 3.0 6.0 0.00 0.00 0.00 58 1011.0
20260502000106 58 130 4.0 7.0 0.00 0.00 0.00 57 1010.8
20260501234555 58 169 4.0 7.0 0.00 0.00 0.00 59 1010.6
20260501233054 58 134 4.0 7.0 0.00 0.00 0.00 57 1010.4
20260501231552 58 129 3.0 6.0 0.00 0.00 0.00 55 1010.8
20260501230053 59 141 2.0 5.0 0.00 0.00 0.00 53 1010.8
20260501224550 59 134 3.0 5.0 0.00 0.00 0.00 52 1010.7
20260501223150 60 141 2.0 5.0 0.00 0.00 0.00 52 1010.8
20260501221547 60 143 2.0 5.0 0.00 0.00 0.00 50 1010.8
20260501220055 61 136 3.0 6.0 0.00 0.00 0.00 47 1010.9
20260501214547 61 143 3.0 6.0 0.00 0.00 0.00 45 1010.8
20260501213046 61 136 3.0 6.0 0.00 0.00 0.00 46 1010.9
20260501211544 61 134 3.0 6.0 0.00 0.00 0.00 50 1011.0
20260501210041 61 134 3.0 6.0 0.00 0.00 0.00 51 1011.0
20260501204541 61 130 4.0 7.0 0.00 0.00 0.00 50 1011.2
20260501203037 61 132 4.0 7.0 0.00 0.00 0.00 50 1011.5
20260501201537 61 105 4.0 7.0 0.00 0.00 0.00 49 1011.6
20260501200031 62 133 2.0 6.0 0.00 0.00 0.00 50 1012.1
20260501194533 62 133 3.0 6.0 0.00 0.00 0.00 45 1012.3
20260501193028 63 134 3.0 6.0 0.00 0.00 0.00 43 1012.3
20260501191526 63 144 3.0 5.0 0.00 0.00 0.00 36 1012.5
20260501190023 63 131 2.0 5.0 0.00 0.00 0.00 38 1012.6
20260501184522 63 138 2.0 5.0 0.00 0.00 0.00 39 1012.8
20260501183020 63 131 2.0 5.0 0.00 0.00 0.00 36 1013.0
20260501181517 63 142 2.0 4.0 0.00 0.00 0.00 35 1013.4
20260501180027 63 133 2.0 4.0 0.00 0.00 0.00 35 1013.4
20260501174516 64 139 2.0 5.0 0.00 0.00 0.00 36 1013.6
20260501173016 63 134 2.0 5.0 0.00 0.00 0.00 37 1013.8
20260501171518 62 128 2.0 4.0 0.00 0.00 0.00 36 1013.8
20260501170014 63 138 2.0 5.0 0.00 0.00 0.00 35 1014.0
20260501164515 63 135 2.0 4.0 0.00 0.00 0.00 38 1014.2
20260501163013 64 141 2.0 4.0 0.00 0.00 0.00 37 1014.3
20260501161513 65 147 1.0 4.0 0.00 0.00 0.00 36 1014.5
20260501160016 65 135 1.0 3.0 0.00 0.00 0.00 35 1014.6
20260501154512 64 140 0.0 2.0 0.00 0.00 0.00 43 1014.9
20260501153006 63 139 2.0 4.0 0.00 0.00 0.00 41 1015.1
20260501151501 61 79 1.0 3.0 0.00 0.00 0.00 42 1015.2
20260501150002 60 94 2.0 3.0 0.00 0.00 0.00 42 1015.4
20260501144600 60 85 2.0 3.0 0.00 0.00 0.00 39 1015.4
20260501143102 61 85 1.0 3.0 0.00 0.00 0.00 41 1015.4
20260501141555 60 72 0.0 3.0 0.00 0.00 0.00 45 1015.4
20260501140054 58 343 0.0 2.0 0.00 0.00 0.00 45 1015.4